Simultaneous Nadir Overpasses (SNOs) Predictions

Prediction of SNOs between AURA and NPP Satellite Orbit:

Table of predicted SNOs for the next 14.0 days since TLE Epoch: 4/2/2022
Index Date (AURA) Time (AURA) Lat,Lon (AURA) SZA (AURA ) Date (NPP) Time (NPP) Lat,Lon (NPP) SZA (NPP ) Distance(km) Time Diff (sec)
1 04/02/2022 04:31:17 -79.72,-169.46 92.60 04/02/2022 04:32:23 -79.72,-169.44 92.65 0.53 66
2 04/04/2022 19:08:59 -79.35, -31.45 93.07 04/04/2022 19:07:59 -79.35, -31.38 93.04 1.54 60
3 04/04/2022 19:58:19 79.57, 137.71 86.60 04/04/2022 19:58:37 79.57, 137.68 86.59 0.48 18
4 04/07/2022 11:25:21 -79.43, 85.02 94.22 04/07/2022 11:24:51 -79.43, 85.04 94.20 0.49 30
5 04/07/2022 12:14:41 79.65,-105.82 85.45 04/07/2022 12:15:29 79.64,-105.88 85.43 1.30 48
6 04/10/2022 02:54:33 73.01, 10.47 92.33 04/10/2022 02:53:20 73.31, 8.60 92.64 69.38 73
7 04/10/2022 03:41:43 -79.48,-158.73 95.31 04/10/2022 03:41:44 -79.48,-158.83 95.29 2.21 1
8 04/12/2022 19:08:41 79.34, 148.55 83.92 04/12/2022 19:07:56 79.33, 148.46 83.97 1.83 45
9 04/12/2022 19:58:01 -79.61, -41.91 96.50 04/12/2022 19:58:33 -79.61, -41.92 96.52 0.18 32
10 04/15/2022 11:25:00 79.43, -94.89 82.80 04/15/2022 11:24:47 79.43, -94.96 82.83 1.55 13



Historial Predications of SNOs between AURA and NPP
